Location: Kaikalui
(16.5250°N, 81.1500°E)
Time: 09:18:34
(UTC+00:00)

CZ-4 R/B - Pass Details

Date: 14 April 2026
Orbit: 490 x 537 km, 97.5° (Epoch: 12 May)

Event Time Altitude Azimuth Distance (km) Brightness Sun altitude
Exits shadow 15:04:25 12° 341° (NNW) 1,619 4.1 -31.6°
Drops below altitude 10° 15:04:45 10° 342° (NNW) 1,757 4.3 -31.7°
Sets 15:06:51 0° 345° (NNW) 2,638 5.3 -32.1°
